SCP
0 0 0 0 0 0 0 0 0 0 0 0 0 0 0 0 0 0 -0 -0 -0 0 -0 0 0 0 0 0 0 0 0 0 0 0 0 0 0 0 0 0 0 0 0
0 0 0 0 0 0 0 0 0 0 0 0 0 0 0 -0 -0 0 0 -0 -0 -0 -0 0 0 0 0 0 0 0 0 0 0 0 0 0 0 0 0 0 0 0 0
0 0 0 0 0 0 0 0 0 0 0 0 0 0 0 0 -0 0 0 0 0 0 0 0 -0 -0 0 0 0 0 0 0 0 0 0 0 0 0 0 0 0 0 0
0 0 0 0 0 0 0 0 0 0 0 0 0 0 0 0 0 0 0 0 0 0 0 0 0 -0 -0 -0 0 0 0 0 0 0 0 0 0 0 0 0 0 0 0
0 0 0 0 0 0 0 0 0 0 0 0 0 0 0 0 0 0 -0 0 0 0 0 0 0 0 0 -0 0 0 0 0 0 0 0 0 0 0 0 0 0 0 0
0 0 0 0 0 0 0 0 0 0 0 0 0 0 0 0 0 0 0 0 0 0 0 0 0 0 -0 -0 0 0 0 0 0 0 0 0 0 0 0 0 0 0 0
0 0 0 0 0 0 0 0 0 0 0 0 0 0 0 0 0 0 0 0 0 0 0 0 0 0 0 0 0 -0 0 -0 0 0 0 0 0 0 0 0 0 0 0
0 0 0 0 0 0 0 0 0 0 0 0 0 0 0 0 0 0 0 0 0 0 0 0 0 0 -0 0 0 0 0 0 0 0 0 0 0 0 0 0 0 0 0
0 0 0 0 0 0 0 0 0 0 0 0 0 0 0 0 0 0 0 0 0 0 0 0 0 0 -0 -0 -0 0 0 0 0 0 0 0 0 0 0 0 0 0 0
0 0 0 0 0 0 0 0 0 0 0 0 0 0 0 0 0 0 0 0 0 0 0 0 0 0 0 0 0 0 0 0 0 0 0 0 0 0 0 0 0 0 0
0 0 0 0 0 0 0 0 0 0 0 0 0 0 0 0 0 0 0 0 0 0 0 0 0 0 0 0 0 0 0 0 0 0 0 0 0 0 0 0 0 0 0
0 0 0 0 0 0 0 0 0 0 0 0 0 0 0 0 0 0 0 0 0 0 0 0 0 0 0 0 0 0 -0 -0 0 0 0 0 0 0 0 0 0 0 0
0 0 0 0 0 0 0 0 0 0 0 0 0 0 0 0 0 0 0 0 0 0 0 0 0 0 0 0 0 0 0 0 0 0 0 0 0 0 -0 0 0 0 0
0 0 0 0 0 0 0 0 0 0 0 0 0 0 0 0 0 0 0 0 0 0 0 0 0 0 0 0 0 0 0 0 0 0 0 0 0 -0 -0 0 0 0 0
0 0 0 0 0 0 0 0 0 0 0 0 0 0 0 0 0 0 0 0 0 0 0 0 0 0 0 0 0 0 0 0 0 0 0 0 0 0 0 0 0 -0 0
0 0 0 0 0 0 0 0 0 0 0 0 0 0 0 0 0 0 0 0 0 0 0 0 0 0 0 0 0 0 0 0 0 0 0 0 0 0 0 0 0 0 0
0 0 0 0 0 0 0 0 0 0 0 0 0 0 0 0 0 0 0 0 0 0 0 0 0 0 0 0 0 0 0 0 0 0 0 0 0 0 0 0 0 0 0
0 0 0 0 0 0 0 0 0 0 0 0 0 0 0 0 0 0 0 0 0 0 0 0 0 0 0 0 0 0 0 0 0 0 0 0 0 0 0 0 0 0 0
0 0 -0 0 0 0 0 0 0 0 0 0 0 0 0 0 0 0 0 0 0 0 0 0 0 0 0 0 0 0 0 0 0 0 0 0 0 0 0 0 0 0 0
-0 -0 0 0 0 -0 0 0 0 0 0 0 0 0 0 0 0 0 0 0 0 0 0 0 0 0 0 0 0 0 0 0 0 0 0 0 0 0 0 0 0 0 0
-0 -0 -0 -0 -0 0 0 0 0 0 0 0 0 0 0 0 0 0 0 0 0 0 0 0 0 0 0 0 0 0 0 0 0 0 0 0 0 0 0 0 0 0 0
0 0 -0 0 0 0 0 0 0 0 0 0 0 0 0 0 0 0 0 0 0 0 0 0 0 0 0 0 0 0 0 0 0 0 0 0 0 0 0 0 0 0 0
0 0 0 -0 -0 -0 0 -0 0 0 0 0 0 0 0 0 0 0 0 0 0 0 0 0 0 0 0 0 0 0 0 0 0 0 0 0 0 0 0 0 0 0 0
0 0 0 0 0 0 0 0 -0 -0 0 0 0 0 0 0 0 0 0 0 0 0 0 0 0 0 0 0 0 0 0 0 0 0 0 0 0 0 0 0 0 0 0
0 0 0 0 0 0 0 0 0 0 -0 -0 0 0 0 0 0 0 0 0 0 0 0 0 0 0 0 0 0 0 0 0 0 0 0 0 0 0 0 0 0 0 0
0 0 0 0 0 0 0 0 0 0 -0 -0 0 0 0 0 0 0 0 0 0 0 0 0 0 0 0 0 0 0 0 0 0 0 0 0 0 0 0 0 0 0 0
Wind_Speed_500mb
47 49 54 48 48 60 60 37 51 58 57 58 63 57 61 40 27 25 23 20 19 20 17 17 18 17 15 11 12 18 23 26 30 30 20 17 29 24 28 19 36 31 34
44 47 56 42 49 55 61 42 52 56 53 52 55 57 59 59 44 33 35 27 21 22 21 16 13 16 20 18 13 13 20 24 32 42 36 34 25 25 27 39 35 37 34
44 46 54 52 49 46 57 51 51 48 53 53 58 52 54 57 56 47 42 37 32 33 34 24 22 15 14 21 19 18 19 16 21 28 33 32 34 31 30 29 43 47 29
45 46 51 50 54 41 45 55 56 37 48 53 48 54 53 50 49 50 46 51 42 31 29 39 24 19 12 19 20 26 13 18 20 25 32 34 30 27 36 36 34 31 39
45 45 49 47 46 48 38 48 52 53 42 47 42 48 55 52 48 40 41 40 52 40 38 38 43 19 20 22 17 17 22 26 27 26 23 33 37 31 33 37 39 45 54
42 42 45 47 46 53 33 38 49 50 49 53 46 40 49 57 51 39 34 39 37 53 48 38 43 41 13 4 13 3 10 18 26 29 22 28 32 33 31 33 38 41 51
39 40 45 47 46 48 43 43 46 52 43 52 58 49 51 57 51 45 35 38 36 38 36 44 44 48 49 7 13 17 21 6 10 9 20 31 33 35 30 36 38 40 39
36 39 43 46 46 42 43 44 45 47 52 43 53 58 52 50 54 51 37 32 37 44 40 35 42 42 39 43 27 16 15 14 16 21 26 24 20 29 35 34 34 39 46
34 38 40 44 43 44 42 42 43 42 44 51 47 53 58 46 49 49 53 37 33 37 41 37 37 36 36 40 34 31 24 17 14 17 19 26 31 34 14 31 40 42 47
33 36 37 40 40 43 42 41 40 38 42 38 45 42 50 57 47 48 49 54 44 38 37 37 34 36 32 32 35 34 34 28 25 24 20 21 19 16 19 26 35 33 37
28 31 32 35 38 39 39 40 45 39 36 40 37 46 44 49 52 44 43 47 49 45 42 44 41 38 35 33 34 35 33 33 31 28 28 31 27 21 18 16 14 23 36
25 26 27 30 31 37 39 38 44 44 44 45 44 45 48 49 50 48 44 41 37 40 39 41 43 36 34 29 34 33 25 22 17 19 26 29 36 29 25 22 20 18 19
22 22 24 26 27 29 36 39 43 46 49 51 52 53 55 55 52 49 47 45 41 36 37 37 40 36 35 36 33 32 32 29 27 24 23 21 21 24 24 30 30 24 22
15 18 21 20 23 24 28 34 40 45 47 49 51 54 54 56 57 55 52 46 43 39 43 36 37 37 38 37 39 37 34 35 34 30 28 27 26 25 24 23 28 24 27
7 11 15 17 21 23 25 28 31 35 41 46 48 49 53 54 53 47 48 50 49 43 38 38 43 45 46 46 43 40 41 40 41 35 34 35 31 27 22 22 25 28 31
5 9 12 15 17 19 21 23 26 29 33 37 42 43 41 42 45 44 44 45 45 45 44 47 48 48 48 47 46 45 40 40 41 39 37 36 36 29 25 24 24 27 30
8 9 11 13 15 18 19 23 27 25 29 33 36 38 36 38 43 45 43 42 45 47 51 49 48 49 49 45 44 42 41 40 39 37 35 36 40 30 29 29 26 26 30
8 10 13 14 15 17 20 20 22 26 26 27 28 33 32 33 37 41 43 43 48 50 52 52 50 48 47 46 44 42 40 39 37 37 40 39 36 36 34 33 33 35 34
11 12 14 16 17 17 18 19 21 21 22 24 24 25 29 30 34 37 41 46 47 47 48 48 48 48 47 45 43 41 39 39 38 35 35 38 39 37 37 36 37 35 35
14 14 13 14 17 18 19 20 20 22 23 26 29 32 31 28 33 37 39 41 43 44 45 46 46 45 46 47 45 43 41 38 37 35 35 34 33 33 38 38 43 50 52
15 16 15 14 16 18 18 21 23 24 25 25 28 30 31 33 35 38 41 41 41 43 44 43 44 44 44 47 47 46 43 40 37 34 30 29 27 26 29 35 33 37 46
14 15 16 16 17 17 17 18 21 25 29 31 29 28 31 32 32 33 32 32 34 36 38 41 41 41 44 46 46 47 47 44 40 36 33 31 28 27 30 34 35 36 38
16 16 16 17 19 18 19 20 22 23 24 25 27 29 28 28 29 32 33 33 33 35 36 36 39 40 40 41 43 45 45 47 45 41 37 35 34 35 35 37 38 40 40
16 17 18 19 20 19 20 20 21 23 25 27 28 29 31 33 32 32 34 34 36 35 36 37 37 37 39 41 42 42 44 43 42 41 38 37 38 39 39 38 39 39 39
17 17 17 19 20 20 22 24 24 24 25 27 29 29 30 33 34 34 34 32 33 35 32 33 35 37 37 39 40 41 40 41 40 39 38 37 39 39 39 39 40 40 40
15 16 16 17 19 20 21 23 24 26 28 28 30 31 32 33 32 31 32 34 36 36 35 35 35 36 36 37 39 40 40 39 39 38 38 39 38 38 39 40 39 40 41
Wind_Direction_500mb
2 359 342 360 12 357 357 7 13 7 5 8 15 28 34 25 23 20 20 26 23 12 13 350 333 332 327 311 302 272 255 250 266 263 268 271 254 277 233 229 223 235 249
4 358 345 6 16 3 1 20 20 11 6 11 14 24 31 24 29 16 11 5 354 341 331 327 310 335 331 325 293 277 269 262 268 272 273 241 264 278 271 263 250 232 245
6 358 350 9 6 10 3 14 20 14 9 17 24 23 25 23 18 29 32 27 22 19 7 325 292 284 308 310 305 309 269 263 267 277 279 276 258 259 275 272 249 234 231
9 360 355 8 1 10 11 6 9 15 17 11 18 27 32 24 14 13 20 26 31 29 21 11 350 277 287 305 293 283 280 270 279 272 270 276 280 265 256 266 271 229 228
6 1 359 5 4 2 21 10 7 17 20 12 19 28 27 30 17 9 17 22 21 29 32 25 15 349 265 309 301 282 280 274 267 275 277 275 267 272 269 260 254 248 249
4 4 3 6 9 1 12 24 10 10 3 15 22 28 28 29 18 18 12 15 18 28 23 28 24 17 344 312 24 60 18 310 252 268 273 283 281 280 266 254 258 262 252
4 10 10 9 11 4 16 29 15 5 10 3 12 23 29 29 20 18 14 20 12 10 15 21 22 22 20 342 271 298 320 337 22 261 286 290 285 277 274 273 262 258 254
9 14 15 13 10 11 17 25 18 9 9 9 5 13 20 23 17 19 19 23 21 5 9 19 14 16 22 17 12 332 299 287 283 284 284 292 301 281 264 267 267 265 262
16 16 15 12 10 13 16 19 17 8 7 10 8 6 13 21 20 14 13 23 28 12 7 11 16 18 14 3 7 18 16 357 336 317 300 293 282 273 276 247 254 262 263
18 15 14 9 9 12 13 14 12 13 12 8 6 8 7 12 16 11 5 8 14 12 9 6 21 10 8 10 1 5 4 10 8 4 4 352 341 317 299 273 260 260 259
20 13 15 12 15 13 15 18 13 14 16 15 17 13 17 8 3 10 9 5 360 2 3 8 13 6 2 2 4 9 355 342 352 355 348 348 344 345 349 342 316 277 263
23 11 14 15 20 21 20 24 22 21 24 24 21 23 20 14 10 11 9 8 4 355 1 9 359 358 2 4 2 1 348 340 331 343 340 342 342 338 337 331 325 324 315
25 8 10 12 17 26 29 30 32 30 29 29 26 24 23 19 17 17 15 12 11 17 19 9 2 5 6 6 6 4 2 3 348 326 317 317 325 328 327 321 320 313 307
29 8 8 12 17 20 27 26 29 31 31 28 25 24 22 20 19 19 19 17 19 18 16 13 3 11 14 12 13 10 5 4 358 353 348 337 326 305 303 304 310 312 299
30 358 3 9 13 15 20 22 23 24 23 22 20 19 15 18 17 15 18 22 18 16 13 17 16 15 15 14 15 15 16 15 10 7 2 356 345 331 316 316 308 305 301
341 344 346 360 7 8 13 16 20 22 21 19 16 13 14 18 20 22 23 22 23 22 24 22 18 14 11 7 10 13 15 11 7 9 13 6 358 357 350 329 313 311 310
314 328 326 340 348 353 3 7 12 26 20 20 16 14 14 22 22 23 26 28 26 25 28 25 21 15 10 9 9 10 10 13 9 6 7 8 8 8 3 357 344 331 324
293 295 307 317 329 344 347 358 3 7 10 19 20 17 16 17 26 23 23 24 28 29 26 22 20 17 14 11 10 8 8 9 10 9 11 10 8 6 3 355 351 344 336
275 294 308 310 315 327 334 346 350 349 354 355 2 16 17 16 23 20 19 22 23 23 21 21 19 18 17 15 12 10 7 6 3 3 6 8 12 14 12 10 8 7 357
261 279 289 306 310 319 327 327 330 333 338 343 351 357 0 6 17 18 18 17 18 20 21 18 17 18 19 17 14 11 8 6 8 10 12 12 19 26 31 28 29 29 24
256 271 284 297 302 309 318 322 323 323 326 336 344 343 349 354 1 6 8 11 12 11 12 14 15 14 16 17 15 13 10 7 5 5 5 12 19 28 27 22 10 3 359
264 268 280 289 291 300 314 312 316 319 328 336 336 337 343 346 350 355 358 3 6 6 4 4 9 12 11 11 10 11 11 8 6 3 2 357 349 345 342 344 344 342 344
262 269 276 286 294 302 300 306 311 317 323 327 325 330 333 335 342 344 347 353 354 356 0 2 1 3 7 10 8 5 8 8 6 2 0 357 355 352 349 346 345 345 345
264 276 283 285 291 293 297 305 306 312 318 319 322 331 332 335 336 338 341 345 346 349 351 352 356 358 0 3 5 5 3 5 6 3 1 360 1 358 354 353 353 353 352
262 270 280 289 295 298 298 301 303 306 311 318 322 324 327 331 336 341 342 338 336 335 341 345 348 352 356 358 358 1 5 0 359 3 2 5 6 5 5 4 5 7 8
258 275 289 298 301 303 305 306 307 312 318 321 324 325 331 332 340 342 337 333 334 336 340 341 344 347 349 353 356 357 357 2 0 0 1 1 5 7 9 9 9 11 14
Wind_Speed_850mb
47 49 54 48 48 60 60 37 51 58 57 58 63 57 61 40 27 25 23 20 19 20 17 17 18 17 15 11 12 18 23 26 30 30 20 17 29 24 28 19 36 31 34
44 47 56 42 49 55 61 42 52 56 53 52 55 57 59 59 44 33 35 27 21 22 21 16 13 16 20 18 13 13 20 24 32 42 36 34 25 25 27 39 35 37 34
44 46 54 52 49 46 57 51 51 48 53 53 58 52 54 57 56 47 42 37 32 33 34 24 22 15 14 21 19 18 19 16 21 28 33 32 34 31 30 29 43 47 29
45 46 51 50 54 41 45 55 56 37 48 53 48 54 53 50 49 50 46 51 42 31 29 39 24 19 12 19 20 26 13 18 20 25 32 34 30 27 36 36 34 31 39
45 45 49 47 46 48 38 48 52 53 42 47 42 48 55 52 48 40 41 40 52 40 38 38 43 19 20 22 17 17 22 26 27 26 23 33 37 31 33 37 39 45 54
42 42 45 47 46 53 33 38 49 50 49 53 46 40 49 57 51 39 34 39 37 53 48 38 43 41 13 4 13 3 10 18 26 29 22 28 32 33 31 33 38 41 51
39 40 45 47 46 48 43 43 46 52 43 52 58 49 51 57 51 45 35 38 36 38 36 44 44 48 49 7 13 17 21 6 10 9 20 31 33 35 30 36 38 40 39
36 39 43 46 46 42 43 44 45 47 52 43 53 58 52 50 54 51 37 32 37 44 40 35 42 42 39 43 27 16 15 14 16 21 26 24 20 29 35 34 34 39 46
34 38 40 44 43 44 42 42 43 42 44 51 47 53 58 46 49 49 53 37 33 37 41 37 37 36 36 40 34 31 24 17 14 17 19 26 31 34 14 31 40 42 47
33 36 37 40 40 43 42 41 40 38 42 38 45 42 50 57 47 48 49 54 44 38 37 37 34 36 32 32 35 34 34 28 25 24 20 21 19 16 19 26 35 33 37
28 31 32 35 38 39 39 40 45 39 36 40 37 46 44 49 52 44 43 47 49 45 42 44 41 38 35 33 34 35 33 33 31 28 28 31 27 21 18 16 14 23 36
25 26 27 30 31 37 39 38 44 44 44 45 44 45 48 49 50 48 44 41 37 40 39 41 43 36 34 29 34 33 25 22 17 19 26 29 36 29 25 22 20 18 19
22 22 24 26 27 29 36 39 43 46 49 51 52 53 55 55 52 49 47 45 41 36 37 37 40 36 35 36 33 32 32 29 27 24 23 21 21 24 24 30 30 24 22
15 18 21 20 23 24 28 34 40 45 47 49 51 54 54 56 57 55 52 46 43 39 43 36 37 37 38 37 39 37 34 35 34 30 28 27 26 25 24 23 28 24 27
7 11 15 17 21 23 25 28 31 35 41 46 48 49 53 54 53 47 48 50 49 43 38 38 43 45 46 46 43 40 41 40 41 35 34 35 31 27 22 22 25 28 31
5 9 12 15 17 19 21 23 26 29 33 37 42 43 41 42 45 44 44 45 45 45 44 47 48 48 48 47 46 45 40 40 41 39 37 36 36 29 25 24 24 27 30
8 9 11 13 15 18 19 23 27 25 29 33 36 38 36 38 43 45 43 42 45 47 51 49 48 49 49 45 44 42 41 40 39 37 35 36 40 30 29 29 26 26 30
8 10 13 14 15 17 20 20 22 26 26 27 28 33 32 33 37 41 43 43 48 50 52 52 50 48 47 46 44 42 40 39 37 37 40 39 36 36 34 33 33 35 34
11 12 14 16 17 17 18 19 21 21 22 24 24 25 29 30 34 37 41 46 47 47 48 48 48 48 47 45 43 41 39 39 38 35 35 38 39 37 37 36 37 35 35
14 14 13 14 17 18 19 20 20 22 23 26 29 32 31 28 33 37 39 41 43 44 45 46 46 45 46 47 45 43 41 38 37 35 35 34 33 33 38 38 43 50 52
15 16 15 14 16 18 18 21 23 24 25 25 28 30 31 33 35 38 41 41 41 43 44 43 44 44 44 47 47 46 43 40 37 34 30 29 27 26 29 35 33 37 46
14 15 16 16 17 17 17 18 21 25 29 31 29 28 31 32 32 33 32 32 34 36 38 41 41 41 44 46 46 47 47 44 40 36 33 31 28 27 30 34 35 36 38
16 16 16 17 19 18 19 20 22 23 24 25 27 29 28 28 29 32 33 33 33 35 36 36 39 40 40 41 43 45 45 47 45 41 37 35 34 35 35 37 38 40 40
16 17 18 19 20 19 20 20 21 23 25 27 28 29 31 33 32 32 34 34 36 35 36 37 37 37 39 41 42 42 44 43 42 41 38 37 38 39 39 38 39 39 39
17 17 17 19 20 20 22 24 24 24 25 27 29 29 30 33 34 34 34 32 33 35 32 33 35 37 37 39 40 41 40 41 40 39 38 37 39 39 39 39 40 40 40
15 16 16 17 19 20 21 23 24 26 28 28 30 31 32 33 32 31 32 34 36 36 35 35 35 36 36 37 39 40 40 39 39 38 38 39 38 38 39 40 39 40 41
Wind_Direction_850mb
2 359 342 360 12 357 357 7 13 7 5 8 15 28 34 25 23 20 20 26 23 12 13 350 333 332 327 311 302 272 255 250 266 263 268 271 254 277 233 229 223 235 249
4 358 345 6 16 3 1 20 20 11 6 11 14 24 31 24 29 16 11 5 354 341 331 327 310 335 331 325 293 277 269 262 268 272 273 241 264 278 271 263 250 232 245
6 358 350 9 6 10 3 14 20 14 9 17 24 23 25 23 18 29 32 27 22 19 7 325 292 284 308 310 305 309 269 263 267 277 279 276 258 259 275 272 249 234 231
9 360 355 8 1 10 11 6 9 15 17 11 18 27 32 24 14 13 20 26 31 29 21 11 350 277 287 305 293 283 280 270 279 272 270 276 280 265 256 266 271 229 228
6 1 359 5 4 2 21 10 7 17 20 12 19 28 27 30 17 9 17 22 21 29 32 25 15 349 265 309 301 282 280 274 267 275 277 275 267 272 269 260 254 248 249
4 4 3 6 9 1 12 24 10 10 3 15 22 28 28 29 18 18 12 15 18 28 23 28 24 17 344 312 24 60 18 310 252 268 273 283 281 280 266 254 258 262 252
4 10 10 9 11 4 16 29 15 5 10 3 12 23 29 29 20 18 14 20 12 10 15 21 22 22 20 342 271 298 320 337 22 261 286 290 285 277 274 273 262 258 254
9 14 15 13 10 11 17 25 18 9 9 9 5 13 20 23 17 19 19 23 21 5 9 19 14 16 22 17 12 332 299 287 283 284 284 292 301 281 264 267 267 265 262
16 16 15 12 10 13 16 19 17 8 7 10 8 6 13 21 20 14 13 23 28 12 7 11 16 18 14 3 7 18 16 357 336 317 300 293 282 273 276 247 254 262 263
18 15 14 9 9 12 13 14 12 13 12 8 6 8 7 12 16 11 5 8 14 12 9 6 21 10 8 10 1 5 4 10 8 4 4 352 341 317 299 273 260 260 259
20 13 15 12 15 13 15 18 13 14 16 15 17 13 17 8 3 10 9 5 360 2 3 8 13 6 2 2 4 9 355 342 352 355 348 348 344 345 349 342 316 277 263
23 11 14 15 20 21 20 24 22 21 24 24 21 23 20 14 10 11 9 8 4 355 1 9 359 358 2 4 2 1 348 340 331 343 340 342 342 338 337 331 325 324 315
25 8 10 12 17 26 29 30 32 30 29 29 26 24 23 19 17 17 15 12 11 17 19 9 2 5 6 6 6 4 2 3 348 326 317 317 325 328 327 321 320 313 307
29 8 8 12 17 20 27 26 29 31 31 28 25 24 22 20 19 19 19 17 19 18 16 13 3 11 14 12 13 10 5 4 358 353 348 337 326 305 303 304 310 312 299
30 358 3 9 13 15 20 22 23 24 23 22 20 19 15 18 17 15 18 22 18 16 13 17 16 15 15 14 15 15 16 15 10 7 2 356 345 331 316 316 308 305 301
341 344 346 360 7 8 13 16 20 22 21 19 16 13 14 18 20 22 23 22 23 22 24 22 18 14 11 7 10 13 15 11 7 9 13 6 358 357 350 329 313 311 310
314 328 326 340 348 353 3 7 12 26 20 20 16 14 14 22 22 23 26 28 26 25 28 25 21 15 10 9 9 10 10 13 9 6 7 8 8 8 3 357 344 331 324
293 295 307 317 329 344 347 358 3 7 10 19 20 17 16 17 26 23 23 24 28 29 26 22 20 17 14 11 10 8 8 9 10 9 11 10 8 6 3 355 351 344 336
275 294 308 310 315 327 334 346 350 349 354 355 2 16 17 16 23 20 19 22 23 23 21 21 19 18 17 15 12 10 7 6 3 3 6 8 12 14 12 10 8 7 357
261 279 289 306 310 319 327 327 330 333 338 343 351 357 0 6 17 18 18 17 18 20 21 18 17 18 19 17 14 11 8 6 8 10 12 12 19 26 31 28 29 29 24
256 271 284 297 302 309 318 322 323 323 326 336 344 343 349 354 1 6 8 11 12 11 12 14 15 14 16 17 15 13 10 7 5 5 5 12 19 28 27 22 10 3 359
264 268 280 289 291 300 314 312 316 319 328 336 336 337 343 346 350 355 358 3 6 6 4 4 9 12 11 11 10 11 11 8 6 3 2 357 349 345 342 344 344 342 344
262 269 276 286 294 302 300 306 311 317 323 327 325 330 333 335 342 344 347 353 354 356 0 2 1 3 7 10 8 5 8 8 6 2 0 357 355 352 349 346 345 345 345
264 276 283 285 291 293 297 305 306 312 318 319 322 331 332 335 336 338 341 345 346 349 351 352 356 358 0 3 5 5 3 5 6 3 1 360 1 358 354 353 353 353 352
262 270 280 289 295 298 298 301 303 306 311 318 322 324 327 331 336 341 342 338 336 335 341 345 348 352 356 358 358 1 5 0 359 3 2 5 6 5 5 4 5 7 8
258 275 289 298 301 303 305 306 307 312 318 321 324 325 331 332 340 342 337 333 334 336 340 341 344 347 349 353 356 357 357 2 0 0 1 1 5 7 9 9 9 11 14